STARLINK-32132, 60334

Orbit data source: Space-Track

STARLINK-32132, 60334 is a payload satellite owned by SpaceX/Seattle (US) in LEO that was launched on Fri, 02 Aug 2024 UTC via an FALCON 9 launch vehicle from the Air Force Eastern Test Range (AFETR). Payload-class satellites include a variety of spacecraft equipped with specific instruments for various scientific and technological missions. These include communications satellites like Starlink; space stations such as the ISS; scientific satellites like the Hubble; Earth observation satellites from companies like Planet Labs, Umbra, and HawkEye 360; GPS; miniature CubeSats for education and research; and military/defense satellites.

Loading next visibility...
Identifier
60334, 2024-136F
Orbit
LEO
Country
Flag of USUS
Related business
Manufacturer
SpaceX/Seattle
Mission
Operational Commercial Communications
Bus & Motor
STARLINK V2M, Unknown motor
Mass
730 kg wet, ~700 kg dry
Launch date (UTC)
2024-08-02 (1 year ago)
Launch vehicle
FALCON 9
Launch site
Air Force Eastern Test Range (AFETR)
Object type
Payload
Rocket body
Debris
Shape & HBR
Box + 2 Pan, 14.5 m
Radar Cross Section
33.884 m², Large (>1 m²)

Expand to show TLE details & history
Last TLE update: 14 hours ago

TLE from 14 hours ago
0 STARLINK-32132
1 60334U 24136F   25260.02719488 -.00001822  00000-0 -49433-4 0  9998
2 60334  53.1580 162.4879 0001080  89.5157 270.5967 15.30184937 63074
Epoch: 2025-09-17T00:39Z
TLE epoch observation values (Epoch: 2025-09-17T00:39:09.637Z)
Latitude
-0.00007°
Longitude
156.48865°
Altitude
476.152 km
Speed
7.629 km/s
True Right ascension
10h 49m 57s
True Declination
0° 00' 00"
Sunlit
Object was in daylight at epoch
Visualization orbit readout
Latitude
Unknown
Longitude
Unknown
Altitude
Unknown
Speed
Unknown
Apparent Right ascension
Unknown
Apparent Declination
Unknown
Sunlit
N/A
Visualization observer readout
Local Sidereal Time
07:41:38
Azimuth
Unknown
Elevation
Unknown
Doppler factor
Unknown
Orbital elements
Apogee altitude
476.257 km
Perigee altitude
474.777 km
Semi-major axis
6,853.654 km
Eccentricity
0.00011
Inclination
53.158°
RAAN
162.4879°
Arg. of periapsis
89.5157°
True anomaly
270.58432°
Mean anomaly
270.5967°
Eccentric anomaly
270.59051°
Mean motion
3.82525 °/min
Orbital period
94.11 mins
BSTAR
-0.000049433
Loading maneuver chart data...
Computing Atmospheric mass density...
Loading historical data...
Loading historical data...
Loading historical data...
Loading historical data...
Loading historical data...
Loading historical data...
Loading historical data...

Documentation

Showing up to 5 results
|